Location: Holyhead Bay
(53.3667°N, 4.6667°W)
Time: 23:49:25
(UTC+00:00)

ADEOS Rocket - Pass Details

Date: 17 April 2021
Orbit: 859 x 1306 km, 98.7° (Epoch: 15 May)

Event Time Altitude Azimuth Distance (km) Brightness Sun altitude
Exits shadow 03:54:10 - 199° (SSW) 2,989 5.1 -11.4°
Reaches altitude 10° 03:54:44 10° 201° (SSW) 2,801 4.9 -11.4°
Maximum altitude 04:00:34 37° 268° (W) 1,639 3.8 -10.7°
Drops below altitude 10° 04:07:02 10° 334° (NNW) 3,108 5.7 -9.8°
Sets 04:10:03 0° 343° (NNW) 4,137 6.5 -9.5°
